Weather History for KCDS - May, 2012

Change the Weather History Date:

Saturday, May 5, 2012

  Actual Average Record
Temperature  
Mean Temperature 85 °F 68 °F  
Max Temperature 105 °F 81 °F 105 °F (2012)
Min Temperature 65 °F 55 °F 38 °F (2013)
Degree Days  
Heating Degree Days 0 2  
Month to date heating degree days 0 10  
Since 1 July heating degree days 2583 3098  
Cooling Degree Days 20 5  
Month to date cooling degree days 99 22  
Year to date cooling degree days 330 113  
Growing Degree Days 36 (Base 50)    
Moisture  
Dew Point 42 °F    
Average Humidity 39    
Maximum Humidity 73    
Minimum Humidity 5    
Precipitation  
Precipitation 0.00 in 0.08 in 1.55 in (1915)
Month to date precipitation 0.00 0.40  
Year to date precipitation 4.58 5.83  
Snow  
Snow 0.00 in 0.00 in - ()
Month to date snowfall 0.0 0.0  
Since 1 July snowfall 4.0 7.0  
Snow Depth -    
Sea Level Pressure  
Sea Level Pressure 29.67 in    
Wind  
Wind Speed 14 mph (SSW)    
Max Wind Speed 28 mph    
Max Gust Speed 40 mph    
Visibility 10 miles    
Events      
T = Trace of Precipitation, MM = Missing Value Source: NWS Daily Summary

Daily Weather History Graph

Daily Weather History Graph

Search for Another Location

Airport or City:

Trip Planner

Search our weather history database for the weather conditions in past years. The results will help you decide how hot, cold, wet, or windy it might be!

Date:

Astronomy

May. 05, 2012 Rise Set
Actual Time 6:46 AM CDT 8:29 PM CDT
Civil Twilight 6:19 AM CDT 8:56 PM CDT
Nautical Twilight 5:46 AM CDT 9:29 PM CDT
Astronomical Twilight 5:12 AM CDT 10:03 PM CDT
Moon 8:22 PM CDT 6:10 AM CDT
Length of Visible Light 14h 36m
Length of Day
13h 42m
Full, 100% of the Moon is Illuminated
May 5
Full
May 5
Full
May 12
Last Quarter
May 20
New
May 28
First Quarter

Hourly Weather History & Observations

Time (CDT) Temp. Heat Index Dew Point Humidity Pressure Visibility Wind Dir Wind Speed Gust Speed Precip Events Conditions
12:53 AM 72.0 °F - 54.0 °F 53% 29.73 in 10.0 mi SSE 16.1 mph - N/A   Clear
1:53 AM 70.0 °F - 55.9 °F 61% 29.72 in 10.0 mi SSE 15.0 mph - N/A   Clear
2:53 AM 69.1 °F - 57.9 °F 68% 29.72 in 10.0 mi SSE 9.2 mph - N/A   Clear
3:53 AM 66.0 °F - 57.9 °F 75% 29.71 in 10.0 mi SSE 8.1 mph - N/A   Clear
4:53 AM 66.0 °F - 57.9 °F 75% 29.72 in 10.0 mi South 10.4 mph - N/A   Clear
5:53 AM 68.0 °F - 59.0 °F 73% 29.71 in 10.0 mi South 10.4 mph - N/A   Clear
6:53 AM 68.0 °F - 59.0 °F 73% 29.71 in 10.0 mi SSW 9.2 mph - N/A   Clear
7:53 AM 71.1 °F - 61.0 °F 70% 29.73 in 9.0 mi South 5.8 mph - N/A   Clear
8:53 AM 79.0 °F - 64.0 °F 60% 29.74 in 10.0 mi SW 13.8 mph 20.7 mph N/A   Clear
9:53 AM 84.9 °F 86.1 °F 64.0 °F 49% 29.74 in 10.0 mi SW 20.7 mph - N/A   Clear
10:53 AM 90.0 °F 89.1 °F 59.0 °F 35% 29.72 in 10.0 mi SW 23.0 mph 29.9 mph N/A   Clear
11:53 AM 93.9 °F 92.6 °F 57.0 °F 29% 29.71 in 10.0 mi SW 19.6 mph - N/A   Clear
12:53 PM 99.0 °F - 45.0 °F 16% 29.69 in 10.0 mi SW 19.6 mph 25.3 mph N/A   Clear
1:53 PM 100.9 °F - 37.9 °F 11% 29.66 in 10.0 mi SSW 18.4 mph - N/A   Clear
2:53 PM 102.9 °F - 34.0 °F 9% 29.64 in 10.0 mi SW 13.8 mph 18.4 mph N/A   Clear
3:53 PM 105.1 °F - 26.1 °F 6% 29.61 in 10.0 mi SW 24.2 mph 40.3 mph N/A   Clear
4:10 PM 105.8 °F - 21.2 °F 5% 29.69 in 10.0 mi WSW 23.0 mph 27.6 mph N/A   Clear
4:53 PM 104.0 °F - 19.9 °F 5% 29.60 in 10.0 mi SSW 18.4 mph 27.6 mph N/A   Clear
5:53 PM 105.1 °F - 19.0 °F 5% 29.58 in 10.0 mi WSW 19.6 mph 26.5 mph N/A   Clear
6:53 PM 102.0 °F - 19.0 °F 5% 29.58 in 10.0 mi WSW 18.4 mph - N/A   Clear
7:53 PM 97.0 °F - 21.0 °F 6% 29.59 in 10.0 mi SW 9.2 mph - N/A   Clear
8:53 PM 89.1 °F - 24.1 °F 9% 29.60 in 10.0 mi SW 8.1 mph - N/A   Clear
9:53 PM 82.9 °F - 26.1 °F 13% 29.62 in 10.0 mi SSW 10.4 mph - N/A   Clear
10:53 PM 82.0 °F - 25.0 °F 12% 29.63 in 10.0 mi SSW 8.1 mph - N/A   Clear
11:53 PM 81.0 °F - 35.1 °F 19% 29.65 in 10.0 mi SSW 10.4 mph - N/A   Clear